Location: Bosdarros
(43.2167°N, 0.3667°W)
Time: 03:36:46
(UTC+00:00)

Cosmos 44 Rocket - Pass Details

Date: 22 April 2021
Orbit: 636 x 754 km, 65.1° (Epoch: 15 May)

Event Time Altitude Azimuth Distance (km) Brightness Sun altitude
Enters shadow 20:09:59 - 181° (S) 3,122 6.4 -13.6°
Exits shadow 20:12:07 - 172° (S) 2,373 5.7 -13.9°
Reaches altitude 10° 20:12:41 10° 169° (S) 2,186 5.5 -14.0°
Maximum altitude 20:16:52 27° 112° (ESE) 1,366 4.2 -14.6°
Drops below altitude 10° 20:21:11 10° 55° (NE) 2,254 5.7 -15.3°
Sets 20:23:53 0° 44° (NE) 3,195 6.6 -15.7°
